This is the latest recevied weather packets stored in our database for station/object F4IVW-13. If no packets are shown the sender has not sent any weather packets the latest 10 day(s).
| Time | Temp. | Humidity | Pressure | Rain* | Wind** | Luminosity | Snow |
|---|---|---|---|---|---|---|---|
| 1777799760 | 21.67° C | 99% | 1014.7 hPa | 0 mm | - | 71 W/m² | - |
| 1777799443 | 20.56° C | 99% | 1014.7 hPa | 0 mm | - | 75 W/m² | - |
| 1777799126 | 20° C | 99% | 1014.7 hPa | 0 mm | - | 73 W/m² | - |
| 1777798816 | 20.56° C | 99% | 1014.6 hPa | 0 mm | - | 44 W/m² | - |
| 1777798492 | 20.56° C | 99% | 1014.7 hPa | 0 mm | - | 16 W/m² | - |
| 1777798169 | 20.56° C | 99% | 1014.8 hPa | 0 mm | - | 75 W/m² | - |
| 1777797854 | 20.56° C | 99% | 1014.7 hPa | 0 mm | - | 38 W/m² | - |
| 1777797535 | 21.11° C | 99% | 1014.7 hPa | 0 mm | - | 30 W/m² | - |
| 1777797221 | 20.56° C | 99% | 1014.6 hPa | 0 mm | - | 26 W/m² | - |
| 1777796906 | 20° C | 99% | 1014.6 hPa | 0 mm | - | 83 W/m² | - |
| 1777796581 | 20.56° C | 99% | 1014.7 hPa | 0 mm | - | 58 W/m² | - |
| 1777796263 | 19.44° C | 99% | 1014.7 hPa | 0 mm | - | 6 W/m² | - |
| 1777795944 | 19.44° C | 99% | 1014.7 hPa | 0 mm | - | 25 W/m² | - |
| 1777795627 | 19.44° C | 99% | 1014.7 hPa | 0 mm | - | 8 W/m² | - |
| 1777795310 | 18.89° C | 99% | 1014.7 hPa | 0 mm | - | 19 W/m² | - |
| 1777795002 | 17.78° C | 99% | 1014.8 hPa | 0 mm | - | 44 W/m² | - |
| 1777794679 | 17.22° C | 99% | 1014.7 hPa | 0 mm | - | 69 W/m² | - |
| 1777794357 | 16.11° C | 99% | 1014.7 hPa | 0 mm | - | 19 W/m² | - |
| 1777794039 | 15.56° C | 99% | 1014.7 hPa | 0 mm | - | 11 W/m² | - |
| 1777793721 | 15.56° C | 99% | 1014.6 hPa | 0 mm | - | 7 W/m² | - |
| 1777793402 | 16.11° C | 99% | 1014.6 hPa | 0 mm | - | 5 W/m² | - |
| 1777793099 | 16.11° C | 99% | 1014.5 hPa | 0 mm | - | 7 W/m² | - |
| 1777792766 | 16.11° C | 99% | 1014.5 hPa | 0 mm | - | 11 W/m² | - |
| 1777792449 | 14.44° C | 99% | 1014.5 hPa | 0 mm | - | 18 W/m² | - |
| 1777792130 | 14.44° C | 99% | 1014.5 hPa | 0 mm | - | 31 W/m² | - |
* Rain latest hour (hover to see other rain measurements)
** Current wind speed in m/s (hover to see current wind gust speed)